Regional Weather Roundup
Issued by NWS Albany, NY

Home | Current Version | Previous Version | Text Only | Print | Product List | Glossary On
Versions: 1 2 3 4 5 6 7 8 9 10 11 12 13 14 15 16 17 18 19 20 21 22 23 24 25 26 27 28 29 30 31 32 33 34 35 36 37 38 39 40 41 42 43 44 45 46 47 48 49 50
000
ASUS41 KALY 191010
RWRALY

NEW YORK STATE HOURLY WEATHER ROUNDUP
NATIONAL WEATHER SERVICE ALBANY NY
500 AM EST THU JAN 19 2017

NOTE: "FAIR" INDICATES FEW OR NO CLOUDS BELOW 12,000 FEET WITH NO
SIGNIFICANT WEATHER AND/OR NO OBSTRUCTIONS TO VISIBILITY.

NYZ032-033-038>043-046>054-057>066-NYZ062>081-082-084-191100-
EAST


CITY           SKY/WX    TMP DP  RH WIND       PRES   REMARKS
ALBANY         CLOUDY    36  34  92 S5        29.99S FOG     WCI  32
GLENS FALLS    CLOUDY    36  33  89 S3        29.97S FOG
POUGHKEEPSIE   FOG       32  32 100 CALM      30.00R VSB 1
NEWBURGH       MOCLDY    36  36 100 W9        30.00S WCI  29
MONTGOMERY     PTCLDY    31  30  96 SW7       29.99S FOG     WCI  24
WHITE PLAINS   PTCLDY    36  34  92 CALM      29.99F
ISLIP          CLOUDY    36  36 100 W3        30.02S
NEW YORK CITY  CLOUDY    42  35  76 CALM      30.02S
CENTRAL PARK   CLOUDY    41  36  82 CALM      30.04F
$$

NYZ005>009-017-018-044>046-055-056-191100-
CENTRAL


CITY           SKY/WX    TMP DP  RH WIND       PRES   REMARKS
FULTON         CLOUDY    37  35  92 SW5       30.00S FOG     WCI  33
SYRACUSE       CLOUDY    36  36 100 W7        30.00S WCI  30
ROME           CLOUDY    35  35 100 W5        30.02R FOG     WCI  31
ELMIRA         CLOUDY    38  33  82 SW7       29.99F WCI  33
BINGHAMTON     CLOUDY    33  33 100 W7        29.96S WCI  27
MONTICELLO     CLOUDY    34  34 100 W7        29.98F WCI  28
$$

NYZ026>034-041>043-087-191100-
NORTH


CITY           SKY/WX    TMP DP  RH WIND       PRES   REMARKS
WATERTOWN      CLOUDY    36  36 100 W12       30.00R FOG     WCI  28
FORT DRUM      NOT AVBL
OGDENSBURG     CLOUDY    34  34  99 SW5       29.97R FOG     WCI  30
MASSENA        CLOUDY    35  35 100 SW8       29.97R WCI  29
SARANAC LAKE   CLOUDY    32  30  92 VRB6G16   29.90S WCI  26
PLATTSBURGH    CLOUDY    33  32  96 CALM      29.93F FOG
$$

NYZ001>004-010>016-019>021-085-191100-
WEST


CITY           SKY/WX    TMP DP  RH WIND       PRES   REMARKS
NIAGARA FALLS  CLOUDY    36  31  82 W13       30.02S WCI  27
BUFFALO        CLOUDY    35  32  88 W16G29    30.01S WCI  25
DUNKIRK        CLOUDY    35  35 100 SW10G18   30.04F FOG     WCI  27
JAMESTOWN      CLOUDY    34  30  86 SW7       30.00S WCI  28
WELLSVILLE     CLOUDY    35  31  85 W7        29.98F WCI  29
ROCHESTER      CLOUDY    38  33  82 W14G25    30.01S WCI  30
PENN YAN       CLOUDY    38  30  73 W6        30.00S WCI  33
$$

             KEY
       WCI = WIND CHILL INDEX
       VSB = VISIBILITY
       HX  = HEAT INDEX
$$



USA.gov is the U.S. government's official web portal to all federal, state and local government web resources and services.